Hourly Data Report for October 29, 2013

All times are specified in Local Standard Time (LST). Add 1 hour to adjust for Daylight Saving Time where and when it is observed.

ST LEONARD CS
NEW BRUNSWICK

47°09'28.050" N
67°49'55.014" W
245.00 m
810I001
71019
WIY

Download Data

Hourly Data (October 2013)
Hourly Data Report for October 29, 2013
Temp Definition
°C
Dew Point Temp Definition
°C
Rel Hum Definition
%
Wind Dir Definition
10's deg

Wind Spd Definition
km/h
Visibility Definition
km
Stn Press Definition
kPa
Hmdx Definition


Wind Chill Definition


Weather Definition


TIME
00:00 -3.2 -4.9 88 29 9   99.42   -7 LegendNANA
01:00 -3.3 -5.1 87 28 6   99.45   -6 LegendNANA
02:00 -4.3 -5.5 91 28 6   99.46   -7 LegendNANA
03:00 -4.4 -5.7 91 29 7   99.46   -8 LegendNANA
04:00 -4.5 -5.8 91 29 4   99.47   -6 LegendNANA
05:00 -5.9 -6.5 96 29 4   99.54   -8 LegendNANA
06:00 -4.9 -5.8 93 27 6   99.58   -8 LegendNANA
07:00 -5.1 -6.0 93 27 6   99.63   -8 LegendNANA
08:00 -3.5 -5.1 89 25 6   99.70   -6 LegendNANA
09:00 -2.0 -3.9 87 28 9   99.76   -5 LegendNANA
10:00 -1.1 -5.2 74 30 17   99.77   -6 LegendNANA
11:00 -0.9 -5.3 72 29 20   99.78   -6 LegendNANA
12:00 0.3 -6.1 62 28 22   99.76     LegendNANA
13:00 -0.2 -6.2 64 27 19   99.71   -5 LegendNANA
14:00 0.5 -6.1 61 27 19   99.68     LegendNANA
15:00 0.0 -5.5 66 29 19   99.68   -5 LegendNANA
16:00 -0.1 -5.7 66 29 13   99.69   -4 LegendNANA
17:00 -0.4 -6.1 65 25 9   99.67   -4 LegendNANA
18:00 -2.3 -6.3 74 24 7   99.68   -5 LegendNANA
19:00 -3.2 -6.2 80 24 6   99.77   -6 LegendNANA
20:00 -3.9 -5.8 87 20 7   99.73   -7 LegendNANA
21:00 -4.2 -6.2 86 20 6   99.72   -7 LegendNANA
22:00 -4.4 -6.6 85 21 2   99.72   -5 LegendNANA
23:00 -5.4 -6.9 89 19 7   99.65   -9 LegendNANA

Notes on Data Quality.

Legend

  • E = Estimated
  • M = Missing
  • NA = Not Available
  • ‡ = Partner data that is not subject to review by the National Climate Archives
Date modified: